Weather in Cherdantsevo

Russia / Sverdlovsk Oblast     56°36′01″N   60°56′46″E
temp.,
°C
wind,
m/s
gust,
m/s
humid.,
%
clouds,
%
prec.,
mm/h
press.,
hPa
HPBL,
m
28 july, wed
wed2823:00+11nw38714 0.0 1011154
02:00+8nw27845 0.0 1011146
05:00+6w27925 0.0 1012152
08:00+12nw475855 0.0 10111263
11:00+13wnw4851100 0.0 10111585
14:00+11nw597490 0.1 1011978
17:00+14nw5750100 0.3 10111868
20:00+13wnw4859100 0.0 1012872
29 july, thu
thu2923:00+10wsw2667100 0.0 1012162
02:00+8wnw26807 0.0 1012144
05:00+6w3993100 0.0 1012217
08:00+11w41065100 0.0 1011707
11:00+17w584216 0.0 10091565
14:00+21w6103497 0.0 10072924
17:00+20w510427 0.0 10071813
20:00+18w385560 0.0 1007282
30 july, fri
fri3023:00+13sw25707 0.0 100794
02:00+11wsw258680 0.1 100789
05:00+14wsw3973100 0.1 1006210
08:00+16wsw41164100 0.0 1005470
11:00+18sw5666100 0.0 1004942
14:00+14ssw3795100 1.0 1004487
17:00+14wsw3794100 1.7 1003551
20:00+15w389498 0.1 1004652
31 july, sat
sat3123:00+14wsw2896100 0.1 1005305
02:00+13wsw269826 0.0 1005133
05:00+12wsw23986 0.0 100670
08:00+17w368551 0.0 1007344
11:00+23w4761100 0.1 10071342
14:00+25wsw4650100 0.4 10061902
17:00+21wsw5876100 1.8 1007657
20:00+19sw388637 0.2 1006452
1 august, sun
sun123:00+15ssw2898100 0.3 1006191
02:00+16sw21198100 0.6 1005269
05:00+16wsw31098100 1.2 1005326
08:00+18w51091100 0.0 1006706
11:00+23wnw58515 0.0 10061315
14:00+25wnw694299 0.0 10062545
17:00+23w484883 0.0 1007983
20:00+21w38634 0.0 1008267